SL-8 DEB, 1549

Orbit data source: Space-Track

SL-8 DEB, 1549 is space debris in LEO originally from a launch on Mon, 15 Mar 1965 UTC launched from the Tyuratam Missile And Space Complex (TTMTR). Debris objects in space refer to the collection of defunct objects orbiting the Earth. Examples of debris include non-operational satellites, rocket bodies, and fragments generated from explosions, collisions, or faulty payload assembly.

Loading next visibility...
Identifier
1549, 1965-020CV
Orbit
LEO
Country
Flag of CISCIS
Related business
Manufacturer
Unknown
Mission
Spacecraft
Bus & Motor
Unknown
Mass
Unknown
Launch date (UTC)
1965-03-15 (61 years ago)
Launch vehicle
Unknown
Launch site
Tyuratam Missile And Space Complex (TTMTR)
Object type
Payload
Rocket body
Debris
Shape & HBR
Unknown
Radar Cross Section
Medium (>0.1 m² and <1 m²)

Expand to show TLE details & history
Last TLE update: 19 hours ago

TLE from 19 hours ago
0 SL-8 DEB
1 01549U 65020CV  25258.54922895 -.00000361  00000-0 -33590-3 0  9993
2 01549  56.1652 332.9328 0843238  84.0456 285.5816 12.64261841780208
Epoch: 2025-09-15T13:10Z
TLE epoch observation values (Epoch: 2025-09-15T13:10:53.381Z)
Latitude
-0.00005°
Longitude
140.45806°
Altitude
1,283.081 km
Speed
7.272 km/s
True Right ascension
22h 11m 43s
True Declination
0° 00' 00"
Sunlit
Object was in full shadow at epoch
Visualization orbit readout
Latitude
Unknown
Longitude
Unknown
Altitude
Unknown
Speed
Unknown
Apparent Right ascension
Unknown
Apparent Declination
Unknown
Sunlit
N/A
Visualization observer readout
Local Sidereal Time
00:52:55
Azimuth
Unknown
Elevation
Unknown
Doppler factor
Unknown
Orbital elements
Apogee altitude
2,061.529 km
Perigee altitude
748.887 km
Semi-major axis
7,783.345 km
Eccentricity
0.08432
Inclination
56.1652°
RAAN
332.9328°
Arg. of periapsis
84.0456°
True anomaly
276.04738°
Mean anomaly
285.5816°
Eccentric anomaly
280.83635°
Mean motion
3.16078 °/min
Orbital period
113.9 mins
BSTAR
-0.0003359
Loading maneuver chart data...
Computing Atmospheric mass density...
Loading historical data...
Loading historical data...
Loading historical data...
Loading historical data...
Loading historical data...
Loading historical data...
Loading historical data...

Documentation

Showing up to 5 results
|